Wind_Speed
10 10 11 11 11 11 11 12 13 13 14 14 14 14 15 16 17 18 19 20 20 20 20 21 21 21 21 21 22 22 22 22 22 23 24 24 25 24 24 25 26 27 27
9 10 11 11 11 12 11 12 13 13 14 14 14 15 15 15 16 18 19 20 21 21 22 22 23 23 23 24 24 24 23 23 23 24 25 25 26 27 27 27 28 28 29
10 10 11 11 12 12 12 12 12 13 14 14 15 15 16 16 17 18 19 20 21 22 23 23 23 24 24 24 25 26 26 25 25 26 27 28 28 28 29 29 29 29 29
10 10 11 11 12 12 13 13 13 13 14 15 15 15 15 16 17 18 19 20 21 22 22 23 24 25 25 26 26 26 26 26 26 26 27 28 28 29 28 28 28 29 29
10 10 11 12 13 13 13 13 14 14 14 15 15 15 15 15 17 17 18 19 21 21 22 24 25 25 26 26 26 26 26 27 27 27 27 28 29 29 29 29 30 31 31
10 11 11 12 13 12 13 14 14 14 14 14 14 14 15 15 16 17 17 18 20 20 21 23 23 24 25 26 26 26 26 26 27 28 28 29 29 29 29 30 32 33 33
11 11 11 11 11 12 13 14 14 14 14 14 14 14 15 17 17 18 18 19 20 20 21 21 22 23 23 24 26 26 26 27 28 28 28 29 30 30 30 31 32 34 35
12 12 13 13 13 13 13 13 14 15 15 15 15 15 16 17 17 18 19 19 20 20 19 20 21 23 23 24 24 25 26 27 28 27 27 28 29 30 31 32 34 35 36
13 13 14 14 14 14 14 14 14 15 15 15 15 16 17 17 17 17 18 18 19 19 19 20 21 22 21 22 23 24 25 25 25 26 28 29 30 32 33 34 35 37 38
14 14 15 15 14 14 14 14 15 15 15 16 16 17 17 17 18 18 19 19 20 20 21 21 21 20 20 21 22 23 23 24 25 27 29 30 32 33 33 35 37 38 39
15 16 16 15 15 15 15 15 15 16 16 16 17 17 18 19 19 19 20 20 20 20 21 21 21 21 22 22 23 24 25 26 27 29 31 32 33 34 35 36 38 39 40
17 17 16 16 16 16 16 16 16 17 17 17 18 18 18 19 19 20 21 22 22 22 23 23 23 23 24 24 25 26 27 28 29 30 32 33 35 36 37 38 39 40 41
17 17 17 16 16 16 16 17 17 17 18 18 18 19 19 19 20 21 21 22 22 23 24 24 25 25 26 27 27 28 29 30 31 31 33 34 36 36 37 38 39 40 41
18 18 17 17 17 17 17 17 17 17 18 18 19 19 20 20 20 21 21 22 23 23 24 25 26 26 27 28 28 29 30 32 32 33 34 34 35 35 36 36 38 39 40
19 19 18 18 18 18 17 17 17 17 18 18 19 19 19 20 21 21 22 23 23 24 25 26 26 27 28 29 30 30 31 32 32 33 33 34 34 35 35 36 37 38 39
20 20 19 19 18 18 18 18 18 19 19 20 19 20 20 21 21 22 22 23 23 24 26 26 27 28 29 29 30 31 31 32 33 33 34 34 34 35 35 36 37 38 38
20 20 20 20 19 19 19 19 19 20 20 20 20 21 21 22 23 23 24 25 25 26 26 27 28 28 29 30 31 31 32 33 33 34 34 34 34 35 36 36 37 38 38
21 21 21 20 20 20 20 20 20 21 20 20 21 22 23 23 24 25 25 25 26 27 27 28 29 30 30 31 32 32 33 33 34 34 35 35 35 36 36 37 37 37 37
21 21 21 21 21 21 21 21 21 21 21 21 22 23 23 24 25 26 26 27 27 28 29 29 30 30 31 32 32 33 34 34 35 35 35 36 36 36 36 37 37 37 37
20 20 20 20 20 20 20 20 21 21 21 22 22 23 24 25 26 27 28 29 29 29 30 31 31 31 32 33 34 35 35 36 36 36 36 36 36 37 37 36 36 35 35
20 20 21 20 20 19 20 20 21 21 22 23 24 25 26 26 27 28 29 29 29 29 30 31 31 32 33 34 35 36 36 36 36 36 36 36 36 36 36 35 34 34 34
20 20 20 19 20 20 21 21 21 22 23 24 25 25 27 28 28 29 29 30 30 30 31 32 33 33 34 35 36 36 36 36 36 36 36 35 35 35 34 34 33 32 32
20 19 19 19 20 20 21 21 22 23 23 24 25 26 27 27 28 29 30 30 30 31 32 33 34 34 35 35 36 36 35 35 35 34 34 34 33 33 33 32 32 32 31
18 18 19 20 20 21 20 21 22 23 24 25 25 26 27 27 28 29 29 30 31 31 32 32 33 34 34 34 34 34 34 33 33 32 32 32 32 31 31 30 30 30 29
16 17 18 19 19 20 21 22 23 24 25 25 26 27 27 28 29 29 30 30 31 32 32 33 33 33 33 33 33 32 32 31 31 31 31 30 30 30 29 29 28 28 27
15 16 17 18 19 20 21 22 23 23 24 25 26 27 28 29 30 31 31 31 32 32 32 32 32 32 32 31 31 31 30 30 30 30 29 29 29 28 28 27 26 26 25
Wind_Direction
275 270 268 272 273 274 273 268 266 263 258 260 259 256 254 250 252 255 255 255 257 258 259 260 260 260 262 264 266 268 267 267 266 265 265 267 268 269 269 269 269 271 272
280 275 269 270 272 274 276 274 267 263 261 261 259 257 254 255 257 257 257 257 258 260 261 261 262 262 262 264 267 268 270 270 267 265 266 268 268 269 271 271 272 274 273
281 276 270 268 272 275 276 276 271 266 264 262 259 259 258 258 259 259 260 261 262 262 262 262 263 264 263 264 265 268 270 271 269 267 266 269 270 271 271 271 273 274 274
285 278 270 270 273 275 275 272 271 267 262 260 259 263 263 263 263 263 265 265 266 267 265 264 264 264 263 263 265 268 270 271 271 268 268 269 271 274 275 274 274 274 275
289 281 273 270 274 274 274 273 272 273 268 263 262 262 265 266 268 268 269 270 269 268 266 267 267 267 266 265 267 268 271 272 272 270 270 270 274 276 276 275 274 274 274
295 288 279 277 277 276 276 276 275 274 269 265 266 266 267 271 274 274 275 274 274 272 270 270 269 268 269 269 269 270 272 273 273 271 270 271 273 273 275 275 274 275 276
295 292 290 287 286 286 281 277 276 275 272 268 267 269 272 273 275 274 276 280 280 278 277 273 271 270 269 270 270 272 273 272 272 272 272 273 273 273 275 276 277 277 278
293 293 292 290 288 285 283 279 277 276 274 270 270 272 274 274 275 275 277 281 282 282 281 278 275 272 274 275 276 274 273 273 273 273 274 274 274 275 277 278 279 279 280
290 290 292 291 290 286 281 278 277 276 275 272 273 273 273 274 275 278 281 281 282 283 282 282 280 280 279 277 277 278 278 277 276 275 277 278 279 279 278 279 279 281 281
288 288 288 289 289 287 284 281 278 277 276 275 275 274 274 273 274 276 279 281 281 282 284 285 285 283 282 282 281 282 282 282 282 283 282 282 283 283 283 283 284 283 283
285 286 287 285 284 284 283 281 281 280 278 278 278 277 277 275 275 276 277 280 281 282 283 282 283 281 281 281 282 284 285 286 286 286 286 285 286 287 286 286 286 286 286
284 286 286 284 283 282 281 280 280 280 280 279 278 278 279 277 276 276 278 281 281 283 284 282 281 281 281 282 283 285 285 286 287 287 287 288 288 288 287 286 286 286 286
284 284 286 285 284 282 280 280 280 279 279 278 278 279 279 277 277 277 279 282 282 283 283 283 284 284 285 285 285 287 287 288 289 289 290 290 289 289 288 288 289 289 289
284 283 284 285 285 283 281 282 282 280 279 279 278 279 278 278 280 281 281 282 283 285 286 287 288 286 287 289 290 291 291 291 291 292 292 292 292 292 292 293 293 293 293
284 284 284 283 284 284 283 283 283 283 282 283 282 281 282 284 284 285 286 286 286 288 289 290 290 290 290 291 291 292 293 292 293 294 294 294 296 296 296 296 296 296 296
283 283 282 283 282 281 281 281 280 280 280 280 282 283 284 285 286 288 289 289 289 289 290 291 291 291 291 292 292 294 294 295 296 298 298 298 298 298 298 298 298 298 298
281 281 280 281 281 281 281 280 280 281 281 281 282 285 286 286 287 288 289 290 291 292 292 292 292 292 292 293 293 294 295 297 299 300 300 300 299 300 300 300 300 301 301
279 279 280 281 282 282 282 281 280 280 281 282 283 285 286 287 287 289 291 293 293 293 293 293 293 293 294 294 294 295 297 298 300 300 300 300 300 300 300 301 301 302 302
277 278 279 279 280 280 281 280 278 279 280 282 284 286 288 289 290 291 292 293 294 294 293 293 294 294 294 295 296 297 298 299 299 300 300 299 300 301 302 302 302 302 302
277 278 280 280 279 279 279 279 278 280 281 283 285 288 289 290 291 292 293 294 294 294 294 295 295 296 296 296 296 297 298 298 299 299 299 299 300 301 302 302 302 303 303
277 278 279 279 279 279 279 280 281 280 282 284 286 289 290 290 291 293 294 294 294 295 296 296 296 296 296 297 297 298 298 299 299 299 299 300 301 301 301 302 302 303 304
273 275 276 278 279 278 280 281 282 282 285 288 290 291 292 292 294 294 294 295 296 296 296 297 297 298 299 299 300 300 300 300 300 301 301 301 301 301 301 302 303 304 304
274 275 276 279 280 280 280 282 283 285 287 290 292 293 293 294 295 296 296 296 296 296 297 298 299 300 300 300 300 301 301 301 302 302 302 302 302 302 302 302 303 303 304
278 278 279 280 281 281 280 282 285 286 288 290 292 294 295 296 298 298 297 297 297 298 299 300 301 302 303 303 303 302 302 303 303 303 303 303 303 303 303 303 303 304 305
280 281 281 280 282 282 282 284 285 287 290 292 293 295 296 298 298 298 298 298 298 299 301 302 303 303 304 304 304 305 305 304 304 304 305 305 305 304 304 304 305 305 306
283 284 284 285 286 287 287 288 289 290 293 295 296 297 298 299 300 301 301 301 301 302 302 303 304 304 304 305 305 305 305 304 304 305 305 306 306 306 306 307 307 308 308
Height
5863 5863 5863 5863 5863 5863 5863 5863 5863 5863 5863 5863 5863 5863 5864 5864 5865 5866 5867 5867 5867 5867 5868 5868 5868 5868 5868 5868 5868 5868 5867 5867 5867 5867 5866 5866 5865 5864 5864 5863 5862 5861 5859
5860 5860 5860 5860 5859 5859 5859 5859 5859 5859 5859 5859 5859 5859 5860 5860 5861 5861 5862 5862 5862 5862 5862 5862 5862 5862 5862 5862 5861 5861 5861 5860 5860 5860 5859 5858 5858 5857 5856 5856 5854 5853 5852
5856 5856 5856 5856 5856 5856 5856 5855 5855 5855 5855 5855 5855 5855 5855 5856 5856 5857 5857 5857 5856 5856 5856 5856 5855 5855 5855 5855 5855 5855 5854 5854 5853 5853 5852 5851 5850 5850 5849 5848 5847 5846 5844
5853 5852 5852 5851 5852 5852 5852 5852 5851 5851 5851 5851 5851 5851 5851 5851 5851 5851 5851 5851 5851 5850 5850 5849 5849 5849 5849 5849 5848 5848 5847 5847 5846 5845 5845 5844 5843 5842 5841 5840 5839 5838 5836
5850 5849 5848 5848 5848 5848 5848 5848 5848 5847 5846 5847 5847 5847 5847 5847 5847 5846 5846 5845 5845 5844 5843 5843 5842 5842 5842 5842 5841 5841 5841 5840 5839 5838 5838 5837 5836 5834 5833 5832 5831 5829 5827
5847 5846 5845 5845 5845 5844 5844 5844 5844 5843 5843 5843 5843 5843 5842 5842 5842 5841 5840 5839 5839 5838 5837 5836 5836 5835 5835 5835 5835 5834 5833 5832 5832 5831 5830 5829 5828 5826 5825 5824 5822 5821 5819
5844 5844 5843 5842 5841 5841 5841 5840 5840 5840 5839 5839 5838 5838 5838 5838 5837 5836 5835 5834 5833 5832 5831 5830 5830 5829 5828 5828 5827 5826 5826 5825 5824 5823 5822 5821 5819 5818 5817 5815 5813 5811 5809
5841 5841 5840 5839 5838 5837 5837 5836 5836 5836 5835 5835 5834 5834 5833 5833 5832 5831 5831 5830 5828 5827 5826 5825 5824 5823 5822 5821 5820 5819 5818 5818 5817 5815 5814 5813 5811 5809 5807 5806 5804 5802 5799
5838 5837 5836 5835 5834 5833 5833 5832 5832 5831 5831 5831 5830 5829 5829 5828 5828 5827 5826 5825 5824 5822 5821 5820 5819 5817 5816 5815 5814 5813 5812 5810 5809 5807 5806 5804 5802 5800 5798 5796 5794 5791 5789
5834 5833 5832 5831 5830 5829 5829 5828 5828 5827 5827 5826 5825 5824 5824 5823 5823 5822 5821 5820 5819 5818 5816 5815 5813 5812 5810 5809 5807 5806 5804 5803 5801 5799 5797 5796 5793 5791 5789 5786 5784 5781 5778
5830 5829 5828 5827 5826 5825 5825 5824 5823 5822 5822 5821 5820 5819 5819 5818 5818 5817 5816 5814 5813 5812 5810 5809 5807 5806 5804 5802 5801 5799 5797 5795 5793 5791 5789 5786 5784 5781 5779 5776 5773 5770 5766
5825 5825 5824 5823 5822 5821 5820 5819 5818 5818 5817 5816 5815 5815 5814 5813 5812 5811 5810 5809 5807 5806 5804 5802 5800 5799 5797 5795 5794 5792 5789 5787 5785 5782 5780 5777 5774 5771 5768 5764 5761 5758 5754
5820 5820 5819 5818 5817 5816 5815 5814 5814 5813 5812 5811 5810 5809 5808 5807 5806 5805 5804 5802 5801 5799 5797 5795 5793 5791 5790 5788 5786 5783 5781 5779 5776 5773 5770 5767 5764 5760 5756 5753 5749 5745 5741
5815 5815 5814 5813 5812 5811 5810 5809 5808 5807 5806 5805 5805 5803 5802 5802 5800 5799 5798 5796 5795 5793 5791 5789 5787 5784 5782 5780 5778 5775 5772 5770 5767 5763 5760 5757 5753 5749 5745 5741 5738 5733 5729
5810 5809 5808 5807 5806 5806 5805 5804 5803 5802 5801 5800 5799 5798 5797 5796 5794 5793 5791 5790 5788 5786 5783 5781 5779 5777 5774 5772 5769 5766 5763 5760 5757 5753 5750 5746 5742 5739 5735 5731 5727 5722 5718
5804 5803 5802 5802 5801 5800 5799 5798 5797 5796 5795 5794 5793 5792 5791 5790 5788 5786 5785 5783 5780 5778 5776 5774 5771 5769 5766 5763 5760 5757 5754 5751 5747 5744 5740 5736 5732 5728 5724 5720 5716 5711 5707
5798 5797 5796 5796 5795 5794 5793 5792 5792 5791 5790 5789 5787 5786 5785 5783 5781 5780 5778 5776 5773 5771 5768 5766 5763 5760 5758 5755 5751 5748 5745 5741 5738 5734 5730 5726 5722 5718 5714 5709 5705 5700 5696
5791 5791 5790 5789 5789 5788 5787 5786 5785 5784 5784 5782 5781 5780 5778 5776 5774 5773 5771 5768 5766 5763 5761 5758 5755 5752 5749 5746 5743 5739 5735 5732 5728 5724 5720 5716 5712 5708 5704 5699 5695 5690 5685
5785 5784 5784 5783 5782 5782 5781 5780 5779 5778 5777 5776 5774 5773 5771 5769 5767 5765 5763 5761 5758 5755 5752 5749 5746 5743 5740 5737 5733 5730 5726 5722 5718 5714 5710 5706 5702 5698 5693 5689 5684 5679 5675
5778 5778 5777 5777 5776 5775 5775 5774 5773 5772 5771 5769 5767 5766 5764 5762 5759 5757 5755 5752 5749 5746 5743 5740 5737 5734 5731 5727 5723 5720 5716 5712 5708 5704 5700 5696 5691 5687 5683 5678 5674 5669 5665
5772 5771 5771 5770 5770 5769 5768 5767 5766 5765 5764 5762 5760 5758 5756 5754 5751 5749 5746 5743 5740 5737 5734 5731 5728 5725 5721 5717 5714 5710 5706 5701 5697 5693 5689 5685 5681 5677 5673 5668 5664 5660 5656
5766 5765 5764 5764 5763 5763 5762 5761 5760 5758 5756 5755 5753 5750 5748 5745 5743 5740 5737 5735 5732 5729 5725 5722 5719 5715 5711 5707 5703 5699 5695 5691 5687 5683 5679 5675 5671 5667 5663 5659 5655 5651 5647
5759 5759 5758 5758 5757 5756 5755 5754 5752 5751 5749 5747 5745 5743 5740 5738 5735 5732 5729 5726 5723 5720 5716 5713 5709 5705 5701 5697 5693 5689 5685 5681 5677 5673 5669 5665 5661 5657 5654 5650 5646 5642 5639
5753 5752 5752 5751 5750 5749 5748 5747 5746 5744 5742 5740 5738 5736 5733 5730 5727 5724 5721 5718 5714 5710 5707 5703 5699 5695 5691 5687 5683 5679 5675 5671 5667 5663 5660 5656 5652 5648 5645 5641 5638 5634 5631
5748 5746 5745 5745 5744 5742 5741 5740 5739 5737 5735 5733 5731 5728 5725 5722 5719 5715 5712 5709 5705 5701 5697 5694 5690 5686 5682 5678 5674 5670 5666 5662 5658 5655 5651 5647 5644 5640 5637 5633 5630 5626 5623
5742 5741 5740 5739 5738 5736 5735 5734 5732 5730 5728 5725 5723 5720 5717 5714 5710 5707 5703 5700 5696 5692 5688 5685 5681 5677 5673 5669 5665 5661 5658 5654 5650 5647 5643 5639 5636 5632 5629 5626 5623 5619 5616